Regional Weather Roundup
Issued by NWS

Home | Current Version | Previous Version | Text Only | Print | Product List | Glossary On
Versions: 1 2 3 4 5 6 7 8 9 10 11 12 13 14 15 16 17 18 19 20 21 22 23 24 25 26 27 28 29 30 31 32 33 34 35 36 37 38 39 40 41 42 43 44 45 46 47 48 49 50
000
ASHW40 PHFO 251543
RWRHI

WEATHER ROUNDUP FOR HAWAII
NATIONAL WEATHER SERVICE HONOLULU HI
500 AM HST THU AUG 25 2016

THIS IS AN AUTOMATED REPORT THAT HAS NOT BEEN QUALITY CONTROLLED.

NOTE..."FAIR" INDICATES FEW OR NO CLOUDS BELOW 12,000 FEET WITH NO
SIGNIFICANT WEATHER AND/OR OBSTRUCTIONS TO VISIBILITY.

* - THESE SITES REPORT LIMITED FIELDS

HIZ001>004-251600-
KAUAI-NIIHAU-

CITY           SKY/WX    TMP DP  RH WIND       PRES   REMARKS
LIHUE APT      CLOUDY    80  75  84 E8        30.06S
PORT ALLEN*      N/A     73 N/A N/A N6          N/A
POIPU*           N/A     75 N/A N/A N2          N/A
PRINCEVILLE*     N/A     73 N/A N/A S3          N/A
KOKOLE POINT*  NOT AVBL
MOLOAA DAIRY*    N/A     77  73  88 E5          N/A
WAIMEA HTS*      N/A     77  64  65 N5          N/A
PUU OPAE*        N/A     68  64  88 CALM        N/A
PUU LUA*       NOT AVBL
MAKAHA RIDGE*    N/A     70  68  94 NE1         N/A
$$

HIZ005>011-251600-
OAHU-

CITY           SKY/WX    TMP DP  RH WIND       PRES   REMARKS
HONOLULU       PTCLDY    79  71  76 NE10      30.05R
KALAELOA       CLEAR     75  72  90 NE5       30.06R
KANEOHE MCB    CLOUDY    80  71  74 E12       30.03R
WHEELER FIELD  FAIR      73  72  98 CALM      30.07S
BELLOWS*         N/A    N/A N/A N/A NE17        N/A
KAHUKU*          N/A    N/A N/A N/A VRB1        N/A
WHEELER*         N/A    N/A N/A N/A S2          N/A
WAIANAE HARBOR NOT AVBL
DILLINGHAM*      N/A     72  68  88 MISG        N/A
KAHUKU TRN*      N/A     75  72  88 MISG        N/A
KAWAILOA*        N/A     73  70  88 E7G18       N/A
KII*             N/A     81  73  78 E14         N/A
MAKUA RANGE*     N/A     91  88  89 NW3         N/A  HX 127
OAHU FOREST NW NOT AVBL
SCHOFIELD BRK*   N/A     84  82  94 MISG        N/A  HX 101
SCHOFIELD S*   NOT AVBL
WAIANAE VLY*   NOT AVBL
KUAOKALA*        N/A     75 N/A N/A E9          N/A
HONOULIUULI*   NOT AVBL
MOKUOLOE IS*   NOT AVBL
PALEHUA*         N/A     70  70 100 NE12G17     N/A
WAIAWA PHB*    NOT AVBL
$$

HIZ012>013-251600-
MOLOKAI-

CITY           SKY/WX    TMP DP  RH WIND       PRES   REMARKS
MOLOKAI AIRPT  CLEAR     78  68  71 N8        30.06R
KALAUPAPA      NOT AVBL
MAKAPULAPAI*     N/A     79  70  73 E16G24      N/A
MOLOKAI 1*     NOT AVBL
PUU ALII*        N/A     60  60 100 NE3G9       N/A
$$

HIZ016-251600-
KAHOOLAWE-

CITY           SKY/WX    TMP DP  RH WIND       PRES   REMARKS
KAHOOLAWE*     NOT AVBL
HAKIOAWA*        N/A     75  69  80 MISG      30.48S
HONOKANAIA*      N/A     80  70  70 NE13G24   29.97S
KANELOA*         N/A     77  72  83 NE13G22   30.11S
KEALIALALO*    NOT AVBL
LUA MAKIKA*    NOT AVBL
$$

HIZ014>015-251600-
LANAI-

CITY           SKY/WX    TMP DP  RH WIND       PRES   REMARKS
LANAI CITY     PTCLDY    72  68  88 NE10      30.11R
LANAI 1*       NOT AVBL
$$

HIZ017>028-251600-
MAUI-

CITY           SKY/WX    TMP DP  RH WIND       PRES   REMARKS
KAHULUI        CLEAR     77  65  66 NE7       30.04R
KAPALUA-W MAUI NOT AVBL
HANA AIRPORT   LGT RAIN  75  73  94 NE9       30.11R VSB 1/2
HANA*            N/A     73 N/A N/A S3          N/A
HALEAKALA SUMM   N/A     46  43  87 NE14        N/A
MAALAEA BAY*     N/A     79 N/A N/A N16G25      N/A
HALEAKALA*     NOT AVBL
KAUPO GAP*       N/A     63  63 100 N2G8        N/A
KULA 1*          N/A     55  50  83 E3          N/A
$$

HIZ023>026-251600-
BIG ISLAND OF HAWAII COAST AND LOWER SLOPES-

CITY           SKY/WX    TMP DP  RH WIND       PRES   REMARKS
KAILUA KONA    CLOUDY    81  75  83 CALM      30.00S
HILO           CLOUDY    72  72 100 SW6       30.07S
HONOKAA*         N/A     70 N/A N/A VRB1        N/A
KAWAIHAE MWT*    N/A     79 N/A N/A E3          N/A
KAWAIHAE*        N/A     81 N/A N/A W1        30.01S
SOUTH POINT*     N/A     70 N/A N/A NW9         N/A
UPOLU AIRPORT* NOT AVBL
KAMUELA*       SUNNY     64  63  94 NE15      30.16R
HAKALAU*         N/A     46  41  81 W6          N/A
KALOKO-HONOKO*   N/A     77  72  83 NE5         N/A
PALI 2*          N/A     64  61  88 S10G22      N/A
KEALAKOMO*       N/A     77  68  73 NE9G18      N/A
KAUPULEHU*       N/A     73  63  68 S6G12       N/A
KAPAPALA*        N/A     63  62  97 N5          N/A
LOWER KAHUKU*    N/A     57  57 100 VRB2        N/A
PUHE CS*         N/A     79  63  57 E5G10       N/A
PUHO CS*         N/A     76  69  80 NE3         N/A
PTA KEAMUKU*     N/A     61  57  88 CALM        N/A
WAIKOLOA*        N/A     73  63  68 E13G20      N/A
$$

HIZ027>028-251600-
BIG ISLAND OF HAWAII INTERIOR AND SUMMMITS-

CITY           SKY/WX    TMP DP  RH WIND       PRES   REMARKS
BRADSHAW FIELD CLOUDY    51  46  83 SE3       30.40R
MK VISITOR CEN   N/A     46  39  76 VRB3        N/A
MAUNA KEA*       N/A     37  14  38 SE14        N/A  WCI  29
MAUNA LOA*       N/A     41  36  81 MISG        N/A
MAUNA LOA 1*   NOT AVBL
PTA KIPUKA*      N/A     54  54 100 E3          N/A
PTA RANGE 17*    N/A     55  50  82 E7          N/A
PTA WEST*        N/A     55  52  88 SE10        N/A
NENE CABIN*      N/A     52  39  62 N6          N/A
AHUMOA*          N/A     53  42  67 E5          N/A
PTA PORTABLE*  NOT AVBL
PUU MALI*        N/A     55  45  67 S3          N/A
$$

HIC003-251600-
NORTHWEST ISLANDS-

CITY           SKY/WX    TMP DP  RH WIND       PRES   REMARKS
MIDWAY ISLAND  LGT RAIN  73  72  94 N5        29.95S
MIDWAY NOS*      N/A     73 N/A N/A MISG      29.94S
FRENCH FRIGATE NOT AVBL
$$

PHZ110>124-180-251600-
BUOY REPORTS

STATION/POSITION TIME  TEMP    WIND        PRES    WAVE   SWELL
                       AIR SEA DIR/SP/G            HT/PER HT/DIR
                 (UTC) (F)     (DEG/KT/KT) (MB)    (FT/S) (FT/D)
BUOY 51001       NOT AVBL
BUOY 51101       1450   80 81  140/  6/  8 1017.2R   4/ 7   3/100
BUOY 51100       NOT AVBL
BUOY 51002       NOT AVBL
BUOY 51003       1450   82 83   40/  8/ 10 1016.1R   4/ 9   3/100
BUOY 51004       1450   81 82   70/ 17/ 21 1015.6R   6/ 6   3/ 40
BARBERS PT BUOY  NOT AVBL
WAIMEA BAY BUOY  1504      81                N/A     3/ 9   2/ 10
KAILUA BAY BUOY  1511      81                N/A     5/ 6   2/130
LANAI BUOY       1515      82                N/A     3/12   2/210
BARBERS PT 2     NOT AVBL
PAUWELA MAUI     1509      80                N/A     4/ 7
HILO             1512      80                N/A     5/ 9   2/130
KANEOHE BAY BUOY 1406      80                N/A     4/ 6
HANALEI KAUAI    NOT AVBL
KAHULUI HARBOR   1500   79 82  350/ 12/ 17 1017.6R
HONOLULU HARBOR  1500   80 82   50/  3/  4 1018.2R
KILO NALU        NOT AVBL
HILO HARBOR      1500   72 80  260/  8/  9 1017.9R
MOKUOLOE         1400   79 83   90/  8/ 13 1017.6R
NAWILIWILI       1500   75 81  260/  4/  4 1017.8R
WHOTS BUOY       NOT AVBL
BUOY 51028       NOT AVBL
$$

......................KEY........................................
  SKY/WX - SKY CONDITIONS/PRESENT WEATHER
  TMP    - TEMPERATURE IN FAHRENHEIT
  DWPT   - DEWPOINT IN FAHRENHEIT
  RH     - RELATIVE HUMIDITY IN PERCENT
  WIND   - DIRECTION AND SPEED /MPH FOR ISLANDS...KTS FOR BUOYS/
  PRES   - MEAN SEA LEVEL PRESSURE IN INCHES OF HG
  VSB    - VISIBILITY IN MILES
  HX     - HEAT INDEX
  WCI    - WIND CHILL INDEX
  VRB    - VARIABLE WIND DIRECTION
  N/A    - NOT AVAILABLE




USA.gov is the U.S. government's official web portal to all federal, state and local government web resources and services.